sat.trackr.live / text

‹ back to catalog

STARLINK-4310

NORAD 53074 · 2022-077AH

PAYLOAD ACTIVE UNKNOWN

§ Identity

Operator
Country
US
Launch date
2022-07-11
Launch site
AFWTR
Launch vehicle
Mass (kg)
RCS (m²)

Purposes: comms

External: N2YO · Heavens-Above · Gunter

§ Orbital elements

Epoch: 2026-05-25T01:59:33.835200Z

Period
95.47 min
Inclination
97.5786°
Eccentricity
0.0001264
Mean motion
15.08344107 rev/d
Perigee alt
540.4 km
Apogee alt
542.1 km
Semi-major
6,919.4 km
B*
2.3474e-6
RAAN
326.4927°
Arg perigee
99.4427°
Mean anomaly
260.6944°
Rev number
21,248

§ Raw data

STARLINK-43101 53074U 22077AH  26145.08303050 -.00000026  00000+0  23474-5 0  99972 53074  97.5786 326.4927 0001264  99.4427 260.6944 15.08344107212485

JSON: /api/v1/satellites/53074 · /tle

For live sub-satellite position, see the globe view (requires WebGL).

§ Visibility from observer

Set your observer location to see the next 7 days of passes ≥ 10°. The values pass through the URL so the page stays shareable.

No JS? Fill the form by hand. The geolocation button needs JavaScript.